Tracking 18843 objects as of 20-November-2017
HD Live streaming from Space Station
objects crossing your sky now

FENGYUN 1C DEB

Track FENGYUN 1C DEB now!
10-day predictions


NORAD ID: 33711
Int'l Code: 1999-025DGY
Perigee: 834.9 km
Apogee: 994.0 km
Inclination: 99.3 °
Period: 103.1 minutes
Semi major axis: 7285 km
RCS: 0.0056 m2 (small)
Launch date: May 10, 1999
Source: People's Republic of China (PRC)
Launch site: Taiyaun Space Center, China (TSC)

Note: This is SATELLITE DEBRIS
aabbcc
Your satellite tracking list
Your tracking list is empty




NASA's NSSDC Master Catalog

Two Line Element Set (TLE):
1 33711U 99025DGY 17323.88636409 +.00000512 +00000-0 +38577-3 0  9991
2 33711 099.2724 298.2032 0109142 155.9755 268.8527 13.96106982507959
Source of the keplerian elements: AFSPC